Time,TemperatureF,DewpointF,PressureIn,WindDirection,WindDirectionDegrees,WindSpeedMPH,WindSpeedGustMPH,Humidity,HourlyPrecipIn,Conditions,Clouds,dailyrainin,SoftwareType,DateUTC
2013-06-29 00:08:00,67.8,39.9,29.77,ENE,70,3.0,5.0,36,0.00,,CLR,0.00,VWS V14.01,2013-06-29 07:08:00,
2013-06-29 00:18:00,67.4,39.5,29.77,ENE,73,3.0,5.0,36,0.00,,,0.00,VWS V14.01,2013-06-29 07:18:00,
2013-06-29 00:28:00,67.2,39.4,29.77,East,85,2.0,5.0,36,0.00,,,0.00,VWS V14.01,2013-06-29 07:28:00,
2013-06-29 00:38:00,66.8,39.7,29.77,ENE,78,3.0,5.0,37,0.00,,,0.00,VWS V14.01,2013-06-29 07:38:00,
2013-06-29 00:48:00,66.7,38.9,29.77,ENE,73,4.0,5.0,36,0.00,,,0.00,VWS V14.01,2013-06-29 07:48:00,
2013-06-29 00:58:00,66.8,38.3,29.77,ENE,73,3.0,5.0,35,0.00,,,0.00,VWS V14.01,2013-06-29 07:58:00,
2013-06-29 01:08:00,66.9,37.7,29.76,ENE,78,5.0,5.0,34,0.00,,CLR,0.00,VWS V14.01,2013-06-29 08:08:00,
2013-06-29 01:18:00,67.2,38.7,29.76,ENE,70,3.0,5.0,35,0.00,,CLR,0.00,VWS V14.01,2013-06-29 08:18:00,
2013-06-29 01:28:00,67.4,38.8,29.76,ENE,60,4.0,5.0,35,0.00,,CLR,0.00,VWS V14.01,2013-06-29 08:28:00,
2013-06-29 01:38:00,67.1,38.6,29.76,ENE,74,3.0,4.0,35,0.00,,CLR,0.00,VWS V14.01,2013-06-29 08:38:00,
2013-06-29 01:48:00,67.6,38.3,29.76,ENE,76,2.0,4.0,34,0.00,,CLR,0.00,VWS V14.01,2013-06-29 08:48:00,
2013-06-29 01:58:00,67.6,36.7,29.76,ENE,73,0.0,5.0,32,0.00,,CLR,0.00,VWS V14.01,2013-06-29 08:58:00,
2013-06-29 02:08:00,67.7,37.6,29.75,ENE,70,1.0,5.0,33,0.00,,CLR,0.00,VWS V14.01,2013-06-29 09:08:00,
2013-06-29 02:18:00,67.7,36.8,29.75,East,79,1.0,5.0,32,0.00,,CLR,0.00,VWS V14.01,2013-06-29 09:18:00,
2013-06-29 02:28:00,67.2,36.4,29.75,ENE,75,3.0,5.0,32,0.00,,CLR,0.00,VWS V14.01,2013-06-29 09:28:00,
2013-06-29 02:38:00,67.4,36.5,29.74,East,79,1.0,4.0,32,0.00,,CLR,0.00,VWS V14.01,2013-06-29 09:38:00,
2013-06-29 02:48:00,67.6,34.2,29.74,East,80,1.0,3.0,29,0.00,,CLR,0.00,VWS V14.01,2013-06-29 09:48:00,
2013-06-29 02:58:00,68.0,33.7,29.74,East,80,1.0,2.0,28,0.00,,CLR,0.00,VWS V14.01,2013-06-29 09:58:00,
2013-06-29 03:08:00,68.6,34.2,29.74,East,79,0.0,3.0,28,0.00,,CLR,0.00,VWS V14.01,2013-06-29 10:08:00,
2013-06-29 03:18:00,68.6,32.4,29.73,East,79,1.0,3.0,26,0.00,,CLR,0.00,VWS V14.01,2013-06-29 10:18:00,
2013-06-29 03:28:00,68.5,31.3,29.73,East,80,2.0,5.0,25,0.00,,CLR,0.00,VWS V14.01,2013-06-29 10:28:00,
2013-06-29 03:38:00,68.4,31.2,29.73,East,79,0.0,3.0,25,0.00,,CLR,0.00,VWS V14.01,2013-06-29 10:38:00,
2013-06-29 03:48:00,68.5,30.3,29.74,ENE,66,0.0,4.0,24,0.00,,CLR,0.00,VWS V14.01,2013-06-29 10:48:00,
2013-06-29 03:58:00,68.9,29.6,29.73,ENE,75,0.0,2.0,23,0.00,,CLR,0.00,VWS V14.01,2013-06-29 10:58:00,
2013-06-29 04:08:00,68.6,29.4,29.73,ENE,75,0.0,1.0,23,0.00,,CLR,0.00,VWS V14.01,2013-06-29 11:08:00,
2013-06-29 04:18:00,68.5,28.2,29.73,ENE,75,2.0,3.0,22,0.00,,,0.00,VWS V14.01,2013-06-29 11:18:00,
2013-06-29 04:28:00,69.1,28.7,29.74,ENE,73,2.0,3.0,22,0.00,,,0.00,VWS V14.01,2013-06-29 11:28:00,
2013-06-29 04:38:00,69.2,29.9,29.74,ENE,70,2.0,4.0,23,0.00,,,0.00,VWS V14.01,2013-06-29 11:38:00,
2013-06-29 04:48:00,69.2,29.9,29.74,East,82,1.0,3.0,23,0.00,,,0.00,VWS V14.01,2013-06-29 11:48:00,
2013-06-29 04:58:00,68.5,30.3,29.74,ENE,74,3.0,5.0,24,0.00,,,0.00,VWS V14.01,2013-06-29 11:58:00,
2013-06-29 05:08:00,68.1,31.0,29.74,ENE,73,1.0,6.0,25,0.00,,CLR,0.00,VWS V14.01,2013-06-29 12:08:00,
2013-06-29 05:18:00,67.9,30.8,29.74,ENE,62,3.0,4.0,25,0.00,,CLR,0.00,VWS V14.01,2013-06-29 12:18:00,
2013-06-29 05:28:00,67.6,31.5,29.74,ENE,73,2.0,5.0,26,0.00,,CLR,0.00,VWS V14.01,2013-06-29 12:28:00,
2013-06-29 05:38:00,67.3,31.3,29.74,ENE,68,2.0,5.0,26,0.00,,CLR,0.00,VWS V14.01,2013-06-29 12:38:00,
2013-06-29 05:48:00,67.4,32.3,29.74,ENE,62,2.0,5.0,27,0.00,,CLR,0.00,VWS V14.01,2013-06-29 12:48:00,
2013-06-29 05:58:00,67.2,33.0,29.74,ENE,61,1.0,5.0,28,0.00,,CLR,0.00,VWS V14.01,2013-06-29 12:58:00,
2013-06-29 06:08:00,67.2,33.0,29.74,ENE,71,2.0,4.0,28,0.00,,CLR,0.00,VWS V14.01,2013-06-29 13:08:00,
2013-06-29 06:18:00,67.0,34.6,29.74,ENE,75,3.0,5.0,30,0.00,,CLR,0.00,VWS V14.01,2013-06-29 13:18:00,
2013-06-29 06:28:00,67.1,36.3,29.74,ENE,74,1.0,5.0,32,0.00,,CLR,0.00,VWS V14.01,2013-06-29 13:28:00,
2013-06-29 06:38:00,67.8,36.9,29.74,ENE,62,4.0,5.0,32,0.00,,CLR,0.00,VWS V14.01,2013-06-29 13:38:00,
2013-06-29 06:48:00,68.8,38.5,29.73,ENE,78,3.0,5.0,33,0.00,,CLR,0.00,VWS V14.01,2013-06-29 13:48:00,
2013-06-29 06:58:00,70.4,40.7,29.73,East,86,1.0,6.0,34,0.00,,CLR,0.00,VWS V14.01,2013-06-29 13:58:00,
2013-06-29 07:08:00,72.5,43.3,29.73,East,85,3.0,3.0,35,0.00,,CLR,0.00,VWS V14.01,2013-06-29 14:08:00,
2013-06-29 07:18:00,75.2,45.7,29.73,East,85,0.0,5.0,35,0.00,,CLR,0.00,VWS V14.01,2013-06-29 14:18:00,
2013-06-29 07:28:00,78.3,48.4,29.73,East,84,0.0,5.0,35,0.00,,CLR,0.00,VWS V14.01,2013-06-29 14:28:00,
2013-06-29 07:38:00,80.7,45.5,29.73,East,83,2.0,2.0,29,0.00,,CLR,0.00,VWS V14.01,2013-06-29 14:38:00,
2013-06-29 07:48:00,81.3,49.5,29.72,East,83,0.0,3.0,33,0.00,,CLR,0.00,VWS V14.01,2013-06-29 14:48:00,
2013-06-29 07:58:00,82.7,48.1,29.72,East,83,0.0,2.0,30,0.00,,CLR,0.00,VWS V14.01,2013-06-29 14:58:00,
2013-06-29 08:08:00,84.7,47.1,29.72,ESE,119,0.0,0.0,27,0.00,,SCT070,0.00,VWS V14.01,2013-06-29 15:08:00,
2013-06-29 08:18:00,86.5,45.5,29.72,ESE,119,0.0,0.0,24,0.00,,,0.00,VWS V14.01,2013-06-29 15:18:00,
2013-06-29 08:28:00,87.3,46.1,29.72,South,191,1.0,3.0,24,0.00,,,0.00,VWS V14.01,2013-06-29 15:28:00,
2013-06-29 08:38:00,88.4,43.5,29.72,SW,226,0.0,5.0,21,0.00,,,0.00,VWS V14.01,2013-06-29 15:38:00,
2013-06-29 08:48:00,89.6,43.3,29.72,SW,225,0.0,5.0,20,0.00,,,0.00,VWS V14.01,2013-06-29 15:48:00,
2013-06-29 08:58:00,90.4,42.6,29.72,SW,235,1.0,9.0,19,0.00,,,0.00,VWS V14.01,2013-06-29 15:58:00,
2013-06-29 09:08:00,91.0,43.1,29.72,WSW,239,6.0,9.0,19,0.00,,CLR,0.00,VWS V14.01,2013-06-29 16:08:00,
2013-06-29 09:18:00,91.5,44.8,29.72,SSW,199,2.0,9.0,20,0.00,,CLR,0.00,VWS V14.01,2013-06-29 16:18:00,
2013-06-29 09:28:00,92.2,44.0,29.72,SW,228,4.0,11.0,19,0.00,,CLR,0.00,VWS V14.01,2013-06-29 16:28:00,
2013-06-29 09:38:00,92.0,45.2,29.72,WSW,257,4.0,9.0,20,0.00,,CLR,0.00,VWS V14.01,2013-06-29 16:38:00,
2013-06-29 09:48:00,92.1,46.6,29.72,WSW,241,5.0,7.0,21,0.00,,CLR,0.00,VWS V14.01,2013-06-29 16:48:00,
2013-06-29 09:58:00,92.1,46.6,29.72,WSW,257,6.0,8.0,21,0.00,,CLR,0.00,VWS V14.01,2013-06-29 16:58:00,
2013-06-29 10:08:00,93.1,44.8,29.72,WSW,253,4.0,7.0,19,0.00,,CLR,0.00,VWS V14.01,2013-06-29 17:08:00,
2013-06-29 10:18:00,94.4,44.4,29.71,West,272,0.0,5.0,18,0.00,,CLR,0.00,VWS V14.01,2013-06-29 17:18:00,
2013-06-29 10:28:00,96.8,41.6,29.71,West,272,8.0,9.0,15,0.00,,CLR,0.00,VWS V14.01,2013-06-29 17:28:00,
2013-06-29 10:38:00,98.0,42.5,29.72,West,280,3.0,12.0,15,0.00,,CLR,0.00,VWS V14.01,2013-06-29 17:38:00,
2013-06-29 10:48:00,98.2,44.4,29.72,WNW,282,3.0,12.0,16,0.00,,CLR,0.00,VWS V14.01,2013-06-29 17:48:00,
2013-06-29 10:58:00,97.6,43.9,29.72,West,268,5.0,11.0,16,0.00,,CLR,0.00,VWS V14.01,2013-06-29 17:58:00,
2013-06-29 11:08:00,95.5,46.7,29.72,NNW,334,7.0,9.0,19,0.00,,SCT070,0.00,VWS V14.01,2013-06-29 18:08:00,
2013-06-29 11:18:00,94.4,48.5,29.73,NW,314,1.0,9.0,21,0.00,,SCT070,0.00,VWS V14.01,2013-06-29 18:18:00,
2013-06-29 11:28:00,95.1,47.8,29.73,WSW,256,4.0,8.0,20,0.00,,SCT070,0.00,VWS V14.01,2013-06-29 18:28:00,
2013-06-29 11:38:00,96.0,45.7,29.73,NW,321,4.0,9.0,18,0.00,,SCT070,0.00,VWS V14.01,2013-06-29 18:38:00,
2013-06-29 11:48:00,96.1,44.3,29.72,WSW,257,1.0,11.0,17,0.00,,SCT070,0.00,VWS V14.01,2013-06-29 18:48:00,
2013-06-29 11:58:00,96.2,47.3,29.72,West,280,4.0,11.0,19,0.00,,SCT070,0.00,VWS V14.01,2013-06-29 18:58:00,
2013-06-29 12:08:00,96.8,46.3,29.72,WSW,249,4.0,11.0,18,0.00,,CLR,0.00,VWS V14.01,2013-06-29 19:08:00,
2013-06-29 12:18:00,97.6,45.5,29.71,WNW,293,4.0,12.0,17,0.00,,,0.00,VWS V14.01,2013-06-29 19:18:00,
2013-06-29 12:28:00,98.1,44.3,29.71,WNW,291,0.0,11.0,16,0.00,,,0.00,VWS V14.01,2013-06-29 19:28:00,
2013-06-29 12:38:00,98.1,45.9,29.71,WSW,254,4.0,11.0,17,0.00,,,0.00,VWS V14.01,2013-06-29 19:38:00,
2013-06-29 12:48:00,97.6,45.5,29.70,WNW,287,5.0,12.0,17,0.00,,,0.00,VWS V14.01,2013-06-29 19:48:00,
2013-06-29 12:58:00,97.7,45.6,29.70,WNW,283,8.0,13.0,17,0.00,,,0.00,VWS V14.01,2013-06-29 19:58:00,
2013-06-29 13:08:00,98.6,44.7,29.70,NW,305,6.0,15.0,16,0.00,,CLR,0.00,VWS V14.01,2013-06-29 20:08:00,
2013-06-29 13:18:00,99.4,45.3,29.70,WNW,285,6.0,13.0,16,0.00,,CLR,0.00,VWS V14.01,2013-06-29 20:18:00,
2013-06-29 13:28:00,99.3,45.2,29.70,WNW,291,13.0,15.0,16,0.00,,CLR,0.00,VWS V14.01,2013-06-29 20:28:00,
2013-06-29 13:38:00,98.8,46.5,29.69,West,274,2.0,17.0,17,0.00,,CLR,0.00,VWS V14.01,2013-06-29 20:38:00,
2013-06-29 13:48:00,99.0,45.0,29.69,West,278,3.0,14.0,16,0.00,,CLR,0.00,VWS V14.01,2013-06-29 20:48:00,
2013-06-29 13:58:00,99.1,46.7,29.69,WNW,283,6.0,13.0,17,0.00,,CLR,0.00,VWS V14.01,2013-06-29 20:58:00,
2013-06-29 14:08:00,99.0,48.1,29.69,WSW,258,12.0,15.0,18,0.00,,CLR,0.00,VWS V14.01,2013-06-29 21:08:00,
2013-06-29 14:18:00,99.2,48.3,29.68,West,277,11.0,15.0,18,0.00,,CLR,0.00,VWS V14.01,2013-06-29 21:18:00,
2013-06-29 14:28:00,98.4,49.1,29.68,WNW,283,11.0,19.0,19,0.00,,CLR,0.00,VWS V14.01,2013-06-29 21:28:00,
2013-06-29 14:38:00,98.6,52.0,29.68,WNW,301,10.0,15.0,21,0.00,,CLR,0.00,VWS V14.01,2013-06-29 21:38:00,
2013-06-29 14:48:00,97.9,52.6,29.67,West,264,4.0,15.0,22,0.00,,CLR,0.00,VWS V14.01,2013-06-29 21:48:00,
2013-06-29 14:58:00,98.9,53.5,29.67,WNW,283,7.0,14.0,22,0.00,,CLR,0.00,VWS V14.01,2013-06-29 21:58:00,
2013-06-29 15:08:00,99.0,54.8,29.67,West,274,7.0,13.0,23,0.00,,CLR,0.00,VWS V14.01,2013-06-29 22:08:00,
2013-06-29 15:18:00,98.3,55.3,29.67,West,272,5.0,15.0,24,0.00,,CLR,0.00,VWS V14.01,2013-06-29 22:18:00,
2013-06-29 15:28:00,98.0,56.2,29.67,West,272,11.0,13.0,25,0.00,,CLR,0.00,VWS V14.01,2013-06-29 22:28:00,
2013-06-29 15:38:00,98.3,56.5,29.66,West,260,9.0,21.0,25,0.00,,CLR,0.00,VWS V14.01,2013-06-29 22:38:00,
2013-06-29 15:48:00,98.0,55.1,29.66,WSW,237,4.0,14.0,24,0.00,,CLR,0.00,VWS V14.01,2013-06-29 22:48:00,
2013-06-29 15:58:00,97.5,55.8,29.66,NW,310,7.0,13.0,25,0.00,,CLR,0.00,VWS V14.01,2013-06-29 22:58:00,
2013-06-29 16:08:00,97.6,55.9,29.66,West,272,8.0,12.0,25,0.00,,CLR,0.00,VWS V14.01,2013-06-29 23:08:00,
2013-06-29 16:18:00,98.0,55.1,29.65,WSW,249,5.0,17.0,24,0.00,,,0.00,VWS V14.01,2013-06-29 23:18:00,
2013-06-29 16:28:00,96.8,54.1,29.65,West,267,6.0,15.0,24,0.00,,,0.00,VWS V14.01,2013-06-29 23:28:00,
2013-06-29 16:38:00,97.7,53.7,29.65,West,269,10.0,12.0,23,0.00,,,0.00,VWS V14.01,2013-06-29 23:38:00,
2013-06-29 16:48:00,96.9,51.8,29.64,West,275,3.0,15.0,22,0.00,,,0.00,VWS V14.01,2013-06-29 23:48:00,
2013-06-29 16:58:00,97.2,52.0,29.64,WSW,246,7.0,13.0,22,0.00,,,0.00,VWS V14.01,2013-06-29 23:58:00,
2013-06-29 17:08:00,97.7,51.2,29.64,WNW,293,5.0,13.0,21,0.00,,CLR,0.00,VWS V14.01,2013-06-30 00:08:00,
2013-06-29 17:18:00,96.7,50.4,29.64,West,262,9.0,15.0,21,0.00,,CLR,0.00,VWS V14.01,2013-06-30 00:18:00,
2013-06-29 17:28:00,95.8,50.9,29.64,WNW,283,7.0,11.0,22,0.00,,CLR,0.00,VWS V14.01,2013-06-30 00:28:00,
2013-06-29 17:38:00,96.0,51.1,29.64,West,272,5.0,13.0,22,0.00,,CLR,0.00,VWS V14.01,2013-06-30 00:38:00,
2013-06-29 17:48:00,96.0,51.1,29.64,WNW,285,3.0,11.0,22,0.00,,CLR,0.00,VWS V14.01,2013-06-30 00:48:00,
2013-06-29 17:58:00,95.7,50.8,29.63,WNW,300,4.0,15.0,22,0.00,,CLR,0.00,VWS V14.01,2013-06-30 00:58:00,
2013-06-29 18:08:00,95.0,51.4,29.63,West,272,10.0,15.0,23,0.00,,CLR,0.00,VWS V14.01,2013-06-30 01:08:00,
2013-06-29 18:18:00,94.0,49.4,29.63,WNW,291,8.0,15.0,22,0.00,,CLR,0.00,VWS V14.01,2013-06-30 01:18:00,
2013-06-29 18:28:00,93.2,49.9,29.62,West,270,0.0,11.0,23,0.00,,CLR,0.00,VWS V14.01,2013-06-30 01:28:00,
2013-06-29 18:38:00,92.8,47.2,29.63,WNW,295,8.0,15.0,21,0.00,,CLR,0.00,VWS V14.01,2013-06-30 01:38:00,
2013-06-29 18:48:00,91.9,50.0,29.62,WNW,294,4.0,12.0,24,0.00,,CLR,0.00,VWS V14.01,2013-06-30 01:48:00,
2013-06-29 18:58:00,91.1,50.4,29.63,WNW,297,0.0,11.0,25,0.00,,CLR,0.00,VWS V14.01,2013-06-30 01:58:00,
2013-06-29 19:08:00,90.7,52.2,29.63,WNW,284,5.0,8.0,27,0.00,,CLR,0.00,VWS V14.01,2013-06-30 02:08:00,
2013-06-29 19:18:00,89.6,54.1,29.62,West,259,1.0,6.0,30,0.00,,CLR,0.00,VWS V14.01,2013-06-30 02:18:00,
2013-06-29 19:28:00,88.6,53.2,29.63,WSW,247,1.0,6.0,30,0.00,,CLR,0.00,VWS V14.01,2013-06-30 02:28:00,
2013-06-29 19:38:00,87.4,54.8,29.63,WNW,287,4.0,6.0,33,0.00,,CLR,0.00,VWS V14.01,2013-06-30 02:38:00,
2013-06-29 19:48:00,86.4,55.5,29.63,West,264,0.0,4.0,35,0.00,,CLR,0.00,VWS V14.01,2013-06-30 02:48:00,
2013-06-29 19:58:00,85.2,56.0,29.63,West,259,0.0,2.0,37,0.00,,CLR,0.00,VWS V14.01,2013-06-30 02:58:00,
2013-06-29 20:08:00,84.1,56.5,29.63,WSW,249,0.0,1.0,39,0.00,,CLR,0.00,VWS V14.01,2013-06-30 03:08:00,
2013-06-29 20:18:00,83.0,56.2,29.63,South,180,3.0,4.0,40,0.00,,,0.00,VWS V14.01,2013-06-30 03:18:00,
2013-06-29 20:28:00,83.1,56.3,29.63,SSW,202,0.0,6.0,40,0.00,,,0.00,VWS V14.01,2013-06-30 03:28:00,
2013-06-29 20:38:00,82.2,55.5,29.63,WSW,239,0.0,4.0,40,0.00,,,0.00,VWS V14.01,2013-06-30 03:38:00,
2013-06-29 20:48:00,81.4,54.1,29.64,SSE,163,0.0,2.0,39,0.00,,,0.00,VWS V14.01,2013-06-30 03:48:00,
2013-06-29 20:58:00,80.7,51.3,29.64,ESE,105,2.0,2.0,36,0.00,,,0.00,VWS V14.01,2013-06-30 03:58:00,
2013-06-29 21:08:00,80.0,48.3,29.64,East,85,1.0,3.0,33,0.00,,CLR,0.00,VWS V14.01,2013-06-30 04:08:00,
2013-06-29 21:18:00,79.4,47.8,29.64,ENE,77,3.0,3.0,33,0.00,,CLR,0.00,VWS V14.01,2013-06-30 04:18:00,
2013-06-29 21:28:00,78.9,47.4,29.65,ENE,75,1.0,5.0,33,0.00,,CLR,0.00,VWS V14.01,2013-06-30 04:28:00,
2013-06-29 21:38:00,78.1,46.7,29.64,ENE,77,1.0,2.0,33,0.00,,CLR,0.00,VWS V14.01,2013-06-30 04:38:00,
2013-06-29 21:48:00,77.8,46.4,29.65,ENE,73,1.0,3.0,33,0.00,,CLR,0.00,VWS V14.01,2013-06-30 04:48:00,
2013-06-29 21:58:00,77.4,46.1,29.65,ENE,60,1.0,4.0,33,0.00,,CLR,0.00,VWS V14.01,2013-06-30 04:58:00,
2013-06-29 22:08:00,77.0,46.5,29.65,East,83,1.0,3.0,34,0.00,,CLR,0.00,VWS V14.01,2013-06-30 05:08:00,
2013-06-29 22:18:00,76.5,46.1,29.65,ENE,78,2.0,3.0,34,0.00,,CLR,0.00,VWS V14.01,2013-06-30 05:18:00,
2013-06-29 22:28:00,75.7,46.1,29.65,ENE,78,3.0,4.0,35,0.00,,CLR,0.00,VWS V14.01,2013-06-30 05:28:00,
2013-06-29 22:38:00,75.7,46.9,29.65,ENE,77,2.0,3.0,36,0.00,,CLR,0.00,VWS V14.01,2013-06-30 05:38:00,
2013-06-29 22:48:00,75.5,46.7,29.65,ENE,64,1.0,2.0,36,0.00,,CLR,0.00,VWS V14.01,2013-06-30 05:48:00,
2013-06-29 22:58:00,75.1,47.1,29.65,ENE,70,2.0,2.0,37,0.00,,CLR,0.00,VWS V14.01,2013-06-30 05:58:00,
2013-06-29 23:08:00,74.9,46.9,29.65,ENE,73,1.0,2.0,37,0.00,,CLR,0.00,VWS V14.01,2013-06-30 06:08:00,
2013-06-29 23:18:00,74.7,46.7,29.65,ENE,76,1.0,3.0,37,0.00,,CLR,0.00,VWS V14.01,2013-06-30 06:18:00,
2013-06-29 23:28:00,74.8,46.8,29.65,ENE,75,1.0,3.0,37,0.00,,CLR,0.00,VWS V14.01,2013-06-30 06:28:00,
2013-06-29 23:38:00,74.9,46.9,29.65,ENE,68,2.0,5.0,37,0.00,,CLR,0.00,VWS V14.01,2013-06-30 06:38:00,
2013-06-29 23:48:00,74.3,47.1,29.65,ENE,78,5.0,5.0,38,0.00,,CLR,0.00,VWS V14.01,2013-06-30 06:48:00,
2013-06-29 23:58:00,74.3,47.1,29.65,ENE,77,1.0,5.0,38,0.00,,CLR,0.00,VWS V14.01,2013-06-30 06:58:00,